Location: Avully
(45.9633°N, 6.0228°E)
Time: 06:20:09
(UTC+00:00)

Cosmos 2221 Rocket - Pass Details

Date: 23 May 2024
Orbit: 617 x 646 km, 82.5° (Epoch: 19 June)

Event Time Altitude Azimuth Distance (km) Brightness Sun altitude
Exits shadow 02:28:30 - 176° (S) 2,193 6.0 -12.4°
Reaches altitude 10° 02:28:53 10° 176° (S) 2,040 5.8 -12.4°
Maximum altitude 02:33:22 63° 95° (E) 722 4.1 -11.8°
Drops below altitude 10° 02:37:52 10° 15° (NNE) 2,048 7.3 -11.3°
Sets 02:40:08 0° 12° (NNE) 2,959 8.1 -11.0°
